Information on these data can be found in provided Readme document
Contact Info: Zachary Fasnacht (zachary.fasnacht@ssaihq.com); Nickolay Krotkov (nickolay.a.krotkov@nasa.gov); Lok Lamsal (lok.lamsal@nasa.gov)

FillValue: -999.
ScaleFactor: 1e15
Units: molecules/cm^2

Date(yyyy-mm-dd),City,Country,LonCenter,LatCenter,BoundingCoordinates,Median,Q1,Q3,Mean,Baseline_Median,Baseline_Q1,Baseline_Q3,Baseline_Mean,NumGoodSamples,NumTotalSamples
2015-01-01,Vancouver,Canada,-123.1207,49.2827,[-123.6207 48.7827 -122.6207 49.7827],2.681,0.99,4.376,3.134,2.759,0.995,4.615,3.178,148.0,660.0
2015-01-02,Vancouver,Canada,-123.1207,49.2827,[-123.6207 48.7827 -122.6207 49.7827],2.681,0.931,4.787,3.225,2.842,1.04,4.851,3.326,129.0,658.0
2015-01-03,Vancouver,Canada,-123.1207,49.2827,[-123.6207 48.7827 -122.6207 49.7827],2.681,0.931,4.787,3.225,2.793,1.004,4.902,3.329,129.0,666.0
2015-01-04,Vancouver,Canada,-123.1207,49.2827,[-123.6207 48.7827 -122.6207 49.7827],2.669,0.874,5.374,3.248,2.862,0.975,5.122,3.395,118.0,661.0
2015-01-05,Vancouver,Canada,-123.1207,49.2827,[-123.6207 48.7827 -122.6207 49.7827],2.53,0.874,4.847,3.164,2.889,0.949,5.28,3.465,124.0,666.0
2015-01-06,Vancouver,Canada,-123.1207,49.2827,[-123.6207 48.7827 -122.6207 49.7827],2.706,0.936,5.48,3.393,2.921,0.946,5.596,3.516,107.0,654.0
2015-01-07,Vancouver,Canada,-123.1207,49.2827,[-123.6207 48.7827 -122.6207 49.7827],2.749,0.99,5.578,3.595,3.105,0.857,5.964,3.815,87.0,667.0
2015-01-08,Vancouver,Canada,-123.1207,49.2827,[-123.6207 48.7827 -122.6207 49.7827],4.847,1.189,6.347,4.445,3.653,0.807,6.509,4.14,70.0,647.0
2015-01-09,Vancouver,Canada,-123.1207,49.2827,[-123.6207 48.7827 -122.6207 49.7827],1.057,0.125,5.023,2.855,3.268,0.694,6.425,3.98,33.0,599.0
2015-01-10,Vancouver,Canada,-123.1207,49.2827,[-123.6207 48.7827 -122.6207 49.7827],1.057,0.125,5.023,2.789,3.261,0.639,6.354,3.911,35.0,604.0
2015-01-11,Vancouver,Canada,-123.1207,49.2827,[-123.6207 48.7827 -122.6207 49.7827],1.057,0.125,5.023,2.789,3.13,0.608,6.241,3.874,35.0,604.0
2015-01-12,Vancouver,Canada,-123.1207,49.2827,[-123.6207 48.7827 -122.6207 49.7827],2.07,0.456,5.023,3.004,3.145,0.629,5.918,3.672,56.0,606.0
2015-01-13,Vancouver,Canada,-123.1207,49.2827,[-123.6207 48.7827 -122.6207 49.7827],2.07,0.456,5.023,3.004,3.471,0.638,6.01,3.782,56.0,598.0
2015-01-14,Vancouver,Canada,-123.1207,49.2827,[-123.6207 48.7827 -122.6207 49.7827],1.811,0.384,5.023,2.887,3.497,0.719,5.784,3.806,63.0,609.0
2015-01-15,Vancouver,Canada,-123.1207,49.2827,[-123.6207 48.7827 -122.6207 49.7827],2.07,0.835,5.346,3.195,3.638,0.722,5.956,3.924,57.0,595.0
2015-01-16,Vancouver,Canada,-123.1207,49.2827,[-123.6207 48.7827 -122.6207 49.7827],2.159,1.057,5.947,3.334,3.826,0.837,6.064,4.052,44.0,601.0
2015-01-17,Vancouver,Canada,-123.1207,49.2827,[-123.6207 48.7827 -122.6207 49.7827],2.159,1.057,5.947,3.334,3.775,0.813,6.123,3.996,44.0,596.0
2015-01-18,Vancouver,Canada,-123.1207,49.2827,[-123.6207 48.7827 -122.6207 49.7827],2.159,1.057,5.947,3.334,3.852,1.298,6.14,4.098,44.0,595.0
2015-01-19,Vancouver,Canada,-123.1207,49.2827,[-123.6207 48.7827 -122.6207 49.7827],4.377,1.424,6.915,4.241,4.199,1.292,6.339,4.261,62.0,602.0
2015-01-20,Vancouver,Canada,-123.1207,49.2827,[-123.6207 48.7827 -122.6207 49.7827],4.844,1.688,6.915,4.493,4.272,1.364,6.321,4.357,56.0,598.0
2015-01-21,Vancouver,Canada,-123.1207,49.2827,[-123.6207 48.7827 -122.6207 49.7827],5.247,2.817,6.968,4.993,4.328,1.731,6.438,4.424,82.0,604.0
2015-01-22,Vancouver,Canada,-123.1207,49.2827,[-123.6207 48.7827 -122.6207 49.7827],5.247,2.07,6.915,4.879,4.01,1.25,6.225,4.066,75.0,596.0
2015-01-23,Vancouver,Canada,-123.1207,49.2827,[-123.6207 48.7827 -122.6207 49.7827],5.66,2.853,7.115,5.717,4.327,1.69,6.351,4.493,83.0,609.0
2015-01-24,Vancouver,Canada,-123.1207,49.2827,[-123.6207 48.7827 -122.6207 49.7827],5.66,2.853,7.115,5.717,4.721,2.09,6.407,4.741,83.0,644.0
2015-01-25,Vancouver,Canada,-123.1207,49.2827,[-123.6207 48.7827 -122.6207 49.7827],5.744,2.853,7.115,5.756,4.642,2.09,6.374,4.746,81.0,645.0
2015-01-26,Vancouver,Canada,-123.1207,49.2827,[-123.6207 48.7827 -122.6207 49.7827],5.744,2.853,7.115,5.756,4.376,2.031,6.1,4.579,81.0,650.0
2015-01-27,Vancouver,Canada,-123.1207,49.2827,[-123.6207 48.7827 -122.6207 49.7827],6.034,5.216,8.083,6.942,4.477,2.617,6.312,4.859,60.0,652.0
2015-01-28,Vancouver,Canada,-123.1207,49.2827,[-123.6207 48.7827 -122.6207 49.7827],6.034,5.216,8.083,6.942,4.612,3.026,6.488,4.993,60.0,656.0
2015-01-29,Vancouver,Canada,-123.1207,49.2827,[-123.6207 48.7827 -122.6207 49.7827],6.173,5.226,8.083,7.275,4.694,3.284,6.456,5.027,53.0,649.0
2015-01-30,Vancouver,Canada,-123.1207,49.2827,[-123.6207 48.7827 -122.6207 49.7827],6.171,5.226,8.083,7.276,4.67,3.412,6.368,5.025,52.0,660.0
2015-01-31,Vancouver,Canada,-123.1207,49.2827,[-123.6207 48.7827 -122.6207 49.7827],6.171,5.226,8.083,7.276,4.774,3.324,6.232,5.037,52.0,647.0
2015-02-01,Vancouver,Canada,-123.1207,49.2827,[-123.6207 48.7827 -122.6207 49.7827],6.171,5.226,8.083,7.276,4.746,3.298,6.222,5.016,52.0,649.0
2015-02-02,Vancouver,Canada,-123.1207,49.2827,[-123.6207 48.7827 -122.6207 49.7827],6.171,5.226,8.083,7.276,4.675,3.236,6.071,4.894,52.0,645.0
2015-02-03,Vancouver,Canada,-123.1207,49.2827,[-123.6207 48.7827 -122.6207 49.7827],6.017,5.226,9.738,7.476,4.332,2.819,6.018,4.61,34.0,642.0
2015-02-04,Vancouver,Canada,-123.1207,49.2827,[-123.6207 48.7827 -122.6207 49.7827],6.017,5.226,9.738,7.476,4.259,2.766,5.978,4.507,34.0,650.0
2015-02-05,Vancouver,Canada,-123.1207,49.2827,[-123.6207 48.7827 -122.6207 49.7827],12.331,6.615,16.336,11.091,4.021,2.395,5.329,4.053,8.0,645.0
2015-02-06,Vancouver,Canada,-123.1207,49.2827,[-123.6207 48.7827 -122.6207 49.7827],12.331,6.615,16.336,11.091,4.002,2.32,5.351,4.005,8.0,649.0
2015-02-07,Vancouver,Canada,-123.1207,49.2827,[-123.6207 48.7827 -122.6207 49.7827],-999.0,-999.0,-999.0,-999.0,3.661,2.142,4.908,3.712,-999.0,-999.0
2015-02-08,Vancouver,Canada,-123.1207,49.2827,[-123.6207 48.7827 -122.6207 49.7827],1.486,1.169,2.791,1.637,3.213,1.907,4.339,3.375,16.0,654.0
2015-02-09,Vancouver,Canada,-123.1207,49.2827,[-123.6207 48.7827 -122.6207 49.7827],1.883,1.169,3.646,2.573,3.328,1.912,4.408,3.423,39.0,635.0
2015-02-10,Vancouver,Canada,-123.1207,49.2827,[-123.6207 48.7827 -122.6207 49.7827],1.883,1.169,3.646,2.573,3.224,1.853,4.308,3.338,39.0,586.0
2015-02-11,Vancouver,Canada,-123.1207,49.2827,[-123.6207 48.7827 -122.6207 49.7827],2.711,1.178,3.646,2.856,3.282,1.827,4.353,3.346,45.0,590.0
2015-02-12,Vancouver,Canada,-123.1207,49.2827,[-123.6207 48.7827 -122.6207 49.7827],2.711,1.178,3.646,2.856,3.273,1.78,4.437,3.321,45.0,591.0
2015-02-13,Vancouver,Canada,-123.1207,49.2827,[-123.6207 48.7827 -122.6207 49.7827],2.761,1.178,4.204,2.999,3.194,1.844,4.523,3.402,50.0,596.0
2015-02-14,Vancouver,Canada,-123.1207,49.2827,[-123.6207 48.7827 -122.6207 49.7827],2.761,1.178,4.204,2.999,2.958,1.584,4.365,3.219,50.0,589.0
2015-02-15,Vancouver,Canada,-123.1207,49.2827,[-123.6207 48.7827 -122.6207 49.7827],2.076,1.017,3.646,2.59,2.778,1.425,4.084,3.068,63.0,600.0
2015-02-16,Vancouver,Canada,-123.1207,49.2827,[-123.6207 48.7827 -122.6207 49.7827],2.711,1.078,4.06,2.801,2.915,1.505,4.157,3.132,77.0,591.0
2015-02-17,Vancouver,Canada,-123.1207,49.2827,[-123.6207 48.7827 -122.6207 49.7827],2.794,1.178,5.741,3.412,2.894,1.355,4.431,3.21,88.0,594.0
2015-02-18,Vancouver,Canada,-123.1207,49.2827,[-123.6207 48.7827 -122.6207 49.7827],2.794,1.178,5.741,3.412,2.928,1.336,4.413,3.229,88.0,593.0
2015-02-19,Vancouver,Canada,-123.1207,49.2827,[-123.6207 48.7827 -122.6207 49.7827],2.794,1.178,5.741,3.412,3.001,1.427,4.544,3.281,88.0,591.0
2015-02-20,Vancouver,Canada,-123.1207,49.2827,[-123.6207 48.7827 -122.6207 49.7827],2.761,1.184,5.204,3.21,3.126,1.63,4.609,3.414,101.0,598.0
2015-02-21,Vancouver,Canada,-123.1207,49.2827,[-123.6207 48.7827 -122.6207 49.7827],2.761,1.184,5.204,3.21,3.052,1.59,4.697,3.438,101.0,595.0
2015-02-22,Vancouver,Canada,-123.1207,49.2827,[-123.6207 48.7827 -122.6207 49.7827],2.761,1.184,5.204,3.21,3.099,1.733,4.674,3.495,101.0,600.0
2015-02-23,Vancouver,Canada,-123.1207,49.2827,[-123.6207 48.7827 -122.6207 49.7827],3.142,1.734,6.019,3.694,3.16,1.807,4.777,3.561,85.0,590.0
2015-02-24,Vancouver,Canada,-123.1207,49.2827,[-123.6207 48.7827 -122.6207 49.7827],3.059,1.512,5.204,3.38,3.012,1.591,4.559,3.427,78.0,607.0
2015-02-25,Vancouver,Canada,-123.1207,49.2827,[-123.6207 48.7827 -122.6207 49.7827],3.181,1.734,6.05,3.899,3.087,1.559,5.001,3.613,103.0,643.0
2015-02-26,Vancouver,Canada,-123.1207,49.2827,[-123.6207 48.7827 -122.6207 49.7827],3.181,1.626,6.05,3.849,3.158,1.526,5.022,3.624,97.0,647.0
2015-02-27,Vancouver,Canada,-123.1207,49.2827,[-123.6207 48.7827 -122.6207 49.7827],3.802,2.195,6.045,4.36,3.23,1.609,5.018,3.662,132.0,653.0
2015-02-28,Vancouver,Canada,-123.1207,49.2827,[-123.6207 48.7827 -122.6207 49.7827],3.672,1.872,6.045,4.204,3.085,1.507,4.961,3.549,133.0,654.0
2015-03-01,Vancouver,Canada,-123.1207,49.2827,[-123.6207 48.7827 -122.6207 49.7827],3.612,2.087,5.789,4.092,3.399,1.688,5.285,3.805,167.0,659.0
2015-03-02,Vancouver,Canada,-123.1207,49.2827,[-123.6207 48.7827 -122.6207 49.7827],3.65,2.272,5.927,4.295,3.207,1.733,5.247,3.822,154.0,651.0
2015-03-03,Vancouver,Canada,-123.1207,49.2827,[-123.6207 48.7827 -122.6207 49.7827],3.65,2.272,5.927,4.289,3.356,1.75,5.568,3.941,144.0,663.0
2015-03-04,Vancouver,Canada,-123.1207,49.2827,[-123.6207 48.7827 -122.6207 49.7827],3.612,2.195,5.62,4.125,3.279,1.768,5.345,3.811,133.0,656.0
2015-03-05,Vancouver,Canada,-123.1207,49.2827,[-123.6207 48.7827 -122.6207 49.7827],3.612,2.195,5.62,4.125,3.188,1.632,5.307,3.785,133.0,661.0
2015-03-06,Vancouver,Canada,-123.1207,49.2827,[-123.6207 48.7827 -122.6207 49.7827],3.612,2.129,5.62,4.048,3.212,1.537,5.273,3.767,144.0,658.0
2015-03-07,Vancouver,Canada,-123.1207,49.2827,[-123.6207 48.7827 -122.6207 49.7827],3.672,2.129,5.821,4.277,3.25,1.617,5.302,3.865,131.0,655.0
2015-03-08,Vancouver,Canada,-123.1207,49.2827,[-123.6207 48.7827 -122.6207 49.7827],3.672,2.129,5.821,4.277,3.224,1.59,5.279,3.887,131.0,663.0
2015-03-09,Vancouver,Canada,-123.1207,49.2827,[-123.6207 48.7827 -122.6207 49.7827],3.672,2.129,5.821,4.277,3.186,1.557,5.15,3.787,131.0,659.0
2015-03-10,Vancouver,Canada,-123.1207,49.2827,[-123.6207 48.7827 -122.6207 49.7827],3.672,2.129,5.821,4.277,3.134,1.669,5.089,3.729,131.0,663.0
2015-03-11,Vancouver,Canada,-123.1207,49.2827,[-123.6207 48.7827 -122.6207 49.7827],4.098,2.47,5.927,4.582,3.111,1.846,5.042,3.709,115.0,652.0
2015-03-12,Vancouver,Canada,-123.1207,49.2827,[-123.6207 48.7827 -122.6207 49.7827],3.762,2.382,5.731,4.22,3.139,1.769,5.098,3.656,90.0,662.0
2015-03-13,Vancouver,Canada,-123.1207,49.2827,[-123.6207 48.7827 -122.6207 49.7827],3.762,2.382,5.731,4.22,3.108,1.769,5.075,3.642,90.0,643.0
2015-03-14,Vancouver,Canada,-123.1207,49.2827,[-123.6207 48.7827 -122.6207 49.7827],2.777,0.955,4.467,3.251,3.341,1.691,5.415,3.721,55.0,592.0
2015-03-15,Vancouver,Canada,-123.1207,49.2827,[-123.6207 48.7827 -122.6207 49.7827],3.104,2.087,4.978,3.584,3.384,1.826,5.492,3.789,49.0,597.0
2015-03-16,Vancouver,Canada,-123.1207,49.2827,[-123.6207 48.7827 -122.6207 49.7827],3.104,0.948,5.687,3.09,3.19,1.702,5.189,3.557,15.0,598.0
2015-03-17,Vancouver,Canada,-123.1207,49.2827,[-123.6207 48.7827 -122.6207 49.7827],2.37,1.313,6.804,3.751,3.312,1.791,5.38,3.665,26.0,603.0
2015-03-18,Vancouver,Canada,-123.1207,49.2827,[-123.6207 48.7827 -122.6207 49.7827],2.37,1.313,6.804,3.692,3.203,1.713,5.331,3.595,22.0,596.0
2015-03-19,Vancouver,Canada,-123.1207,49.2827,[-123.6207 48.7827 -122.6207 49.7827],2.37,1.313,6.804,3.765,3.215,1.854,5.343,3.691,27.0,607.0
2015-03-20,Vancouver,Canada,-123.1207,49.2827,[-123.6207 48.7827 -122.6207 49.7827],2.37,1.313,6.379,3.802,3.309,2.005,5.265,3.703,34.0,597.0
2015-03-21,Vancouver,Canada,-123.1207,49.2827,[-123.6207 48.7827 -122.6207 49.7827],2.698,1.517,6.804,4.176,3.379,1.979,5.473,3.847,23.0,600.0
2015-03-22,Vancouver,Canada,-123.1207,49.2827,[-123.6207 48.7827 -122.6207 49.7827],2.698,1.517,6.804,4.176,3.24,1.833,5.327,3.743,23.0,598.0
2015-03-23,Vancouver,Canada,-123.1207,49.2827,[-123.6207 48.7827 -122.6207 49.7827],2.698,1.517,6.804,4.176,3.259,1.741,5.377,3.645,23.0,596.0
2015-03-24,Vancouver,Canada,-123.1207,49.2827,[-123.6207 48.7827 -122.6207 49.7827],2.37,1.147,5.056,2.896,3.324,1.788,5.305,3.676,35.0,606.0
2015-03-25,Vancouver,Canada,-123.1207,49.2827,[-123.6207 48.7827 -122.6207 49.7827],2.37,1.147,5.056,2.896,3.607,1.833,5.427,3.82,35.0,601.0
2015-03-26,Vancouver,Canada,-123.1207,49.2827,[-123.6207 48.7827 -122.6207 49.7827],2.476,1.313,4.321,2.98,3.844,1.987,5.509,3.976,38.0,602.0
2015-03-27,Vancouver,Canada,-123.1207,49.2827,[-123.6207 48.7827 -122.6207 49.7827],2.476,1.313,4.321,2.98,3.595,1.902,5.429,3.831,38.0,593.0
2015-03-28,Vancouver,Canada,-123.1207,49.2827,[-123.6207 48.7827 -122.6207 49.7827],2.476,1.147,4.321,2.917,3.379,1.739,5.209,3.711,41.0,608.0
2015-03-29,Vancouver,Canada,-123.1207,49.2827,[-123.6207 48.7827 -122.6207 49.7827],2.476,1.278,4.801,3.166,3.011,1.615,4.774,3.438,60.0,641.0
2015-03-30,Vancouver,Canada,-123.1207,49.2827,[-123.6207 48.7827 -122.6207 49.7827],2.565,1.509,4.043,3.129,3.009,1.636,4.663,3.408,67.0,647.0
2015-03-31,Vancouver,Canada,-123.1207,49.2827,[-123.6207 48.7827 -122.6207 49.7827],3.246,1.852,5.056,3.611,3.125,1.775,4.823,3.491,95.0,651.0
2015-04-01,Vancouver,Canada,-123.1207,49.2827,[-123.6207 48.7827 -122.6207 49.7827],3.255,1.893,4.072,3.456,3.106,1.739,4.607,3.427,87.0,649.0
2015-04-02,Vancouver,Canada,-123.1207,49.2827,[-123.6207 48.7827 -122.6207 49.7827],3.441,1.952,4.562,3.579,3.061,1.766,4.544,3.415,121.0,656.0
2015-04-03,Vancouver,Canada,-123.1207,49.2827,[-123.6207 48.7827 -122.6207 49.7827],3.441,1.952,4.551,3.561,2.973,1.606,4.485,3.312,116.0,648.0
2015-04-04,Vancouver,Canada,-123.1207,49.2827,[-123.6207 48.7827 -122.6207 49.7827],3.075,1.652,4.509,3.23,2.783,1.463,4.413,3.169,115.0,662.0
2015-04-05,Vancouver,Canada,-123.1207,49.2827,[-123.6207 48.7827 -122.6207 49.7827],3.046,1.652,4.509,3.216,2.767,1.476,4.198,3.055,117.0,653.0
2015-04-06,Vancouver,Canada,-123.1207,49.2827,[-123.6207 48.7827 -122.6207 49.7827],3.046,1.652,4.509,3.216,2.84,1.507,4.235,3.084,117.0,657.0
2015-04-07,Vancouver,Canada,-123.1207,49.2827,[-123.6207 48.7827 -122.6207 49.7827],2.869,1.671,4.237,3.103,2.81,1.519,4.033,3.019,133.0,654.0
2015-04-08,Vancouver,Canada,-123.1207,49.2827,[-123.6207 48.7827 -122.6207 49.7827],3.038,1.717,4.483,3.339,2.776,1.499,3.976,2.984,122.0,649.0
2015-04-09,Vancouver,Canada,-123.1207,49.2827,[-123.6207 48.7827 -122.6207 49.7827],2.811,1.661,4.196,3.091,2.56,1.425,4.005,2.824,162.0,667.0
2015-04-10,Vancouver,Canada,-123.1207,49.2827,[-123.6207 48.7827 -122.6207 49.7827],2.749,1.652,4.36,3.075,2.423,1.381,3.939,2.72,159.0,666.0
2015-04-11,Vancouver,Canada,-123.1207,49.2827,[-123.6207 48.7827 -122.6207 49.7827],2.604,1.63,4.142,2.985,2.232,1.288,3.721,2.551,190.0,683.0
2015-04-12,Vancouver,Canada,-123.1207,49.2827,[-123.6207 48.7827 -122.6207 49.7827],2.611,1.632,4.196,2.999,2.354,1.294,3.784,2.671,187.0,702.0
2015-04-13,Vancouver,Canada,-123.1207,49.2827,[-123.6207 48.7827 -122.6207 49.7827],2.504,1.493,3.972,2.814,2.24,1.259,3.616,2.569,183.0,757.0
2015-04-14,Vancouver,Canada,-123.1207,49.2827,[-123.6207 48.7827 -122.6207 49.7827],2.36,1.462,4.082,2.81,2.178,1.261,3.751,2.581,176.0,757.0
2015-04-15,Vancouver,Canada,-123.1207,49.2827,[-123.6207 48.7827 -122.6207 49.7827],2.075,1.205,3.809,2.476,2.116,1.182,3.615,2.445,148.0,708.0
2015-04-16,Vancouver,Canada,-123.1207,49.2827,[-123.6207 48.7827 -122.6207 49.7827],2.075,1.205,3.809,2.486,2.031,1.14,3.522,2.361,145.0,717.0
2015-04-17,Vancouver,Canada,-123.1207,49.2827,[-123.6207 48.7827 -122.6207 49.7827],1.784,0.772,3.038,2.073,1.884,0.877,3.229,2.188,111.0,716.0
2015-04-18,Vancouver,Canada,-123.1207,49.2827,[-123.6207 48.7827 -122.6207 49.7827],2.048,1.043,3.061,2.23,2.021,0.952,3.211,2.264,127.0,721.0
2015-04-19,Vancouver,Canada,-123.1207,49.2827,[-123.6207 48.7827 -122.6207 49.7827],2.144,1.462,3.142,2.404,2.113,1.023,3.373,2.432,121.0,709.0
2015-04-20,Vancouver,Canada,-123.1207,49.2827,[-123.6207 48.7827 -122.6207 49.7827],2.144,1.397,3.142,2.386,2.046,1.004,3.363,2.388,124.0,719.0
2015-04-21,Vancouver,Canada,-123.1207,49.2827,[-123.6207 48.7827 -122.6207 49.7827],2.119,1.347,3.073,2.326,2.077,1.008,3.371,2.37,135.0,709.0
2015-04-22,Vancouver,Canada,-123.1207,49.2827,[-123.6207 48.7827 -122.6207 49.7827],2.119,1.182,3.142,2.304,2.102,1.011,3.408,2.437,122.0,711.0
2015-04-23,Vancouver,Canada,-123.1207,49.2827,[-123.6207 48.7827 -122.6207 49.7827],2.119,1.182,3.142,2.302,1.972,0.924,3.393,2.343,123.0,708.0
2015-04-24,Vancouver,Canada,-123.1207,49.2827,[-123.6207 48.7827 -122.6207 49.7827],2.274,1.347,3.061,2.312,2.002,0.978,3.318,2.327,83.0,695.0
2015-04-25,Vancouver,Canada,-123.1207,49.2827,[-123.6207 48.7827 -122.6207 49.7827],2.161,1.347,3.055,2.347,1.954,1.014,3.15,2.303,115.0,703.0
2015-04-26,Vancouver,Canada,-123.1207,49.2827,[-123.6207 48.7827 -122.6207 49.7827],2.161,1.347,2.789,2.271,2.145,1.107,3.122,2.382,84.0,689.0
2015-04-27,Vancouver,Canada,-123.1207,49.2827,[-123.6207 48.7827 -122.6207 49.7827],2.064,1.201,2.606,2.074,2.091,1.068,3.05,2.293,94.0,664.0
2015-04-28,Vancouver,Canada,-123.1207,49.2827,[-123.6207 48.7827 -122.6207 49.7827],2.081,1.201,2.606,2.146,2.119,1.107,3.123,2.332,79.0,616.0
2015-04-29,Vancouver,Canada,-123.1207,49.2827,[-123.6207 48.7827 -122.6207 49.7827],2.161,1.247,2.855,2.187,2.094,1.092,3.087,2.312,89.0,605.0
2015-04-30,Vancouver,Canada,-123.1207,49.2827,[-123.6207 48.7827 -122.6207 49.7827],2.165,1.247,2.987,2.286,2.064,1.021,3.025,2.277,116.0,640.0
2015-05-01,Vancouver,Canada,-123.1207,49.2827,[-123.6207 48.7827 -122.6207 49.7827],2.081,0.878,2.922,2.199,2.097,0.977,3.084,2.322,134.0,642.0
2015-05-02,Vancouver,Canada,-123.1207,49.2827,[-123.6207 48.7827 -122.6207 49.7827],2.161,0.878,2.987,2.245,2.064,0.982,3.089,2.32,174.0,647.0
2015-05-03,Vancouver,Canada,-123.1207,49.2827,[-123.6207 48.7827 -122.6207 49.7827],1.897,0.836,2.96,2.116,2.01,0.973,3.079,2.274,158.0,649.0
2015-05-04,Vancouver,Canada,-123.1207,49.2827,[-123.6207 48.7827 -122.6207 49.7827],2.081,0.872,3.037,2.273,2.036,1.036,3.054,2.243,175.0,652.0
2015-05-05,Vancouver,Canada,-123.1207,49.2827,[-123.6207 48.7827 -122.6207 49.7827],2.134,0.878,3.037,2.29,2.071,1.043,3.069,2.265,170.0,647.0
2015-05-06,Vancouver,Canada,-123.1207,49.2827,[-123.6207 48.7827 -122.6207 49.7827],2.161,0.878,3.048,2.339,2.079,1.058,3.061,2.263,159.0,657.0
2015-05-07,Vancouver,Canada,-123.1207,49.2827,[-123.6207 48.7827 -122.6207 49.7827],2.161,0.878,3.038,2.331,2.099,1.055,3.037,2.24,166.0,648.0
2015-05-08,Vancouver,Canada,-123.1207,49.2827,[-123.6207 48.7827 -122.6207 49.7827],2.165,0.878,3.101,2.349,2.15,1.104,3.068,2.305,166.0,654.0
2015-05-09,Vancouver,Canada,-123.1207,49.2827,[-123.6207 48.7827 -122.6207 49.7827],2.216,1.201,3.017,2.351,2.166,1.163,3.048,2.307,183.0,655.0
2015-05-10,Vancouver,Canada,-123.1207,49.2827,[-123.6207 48.7827 -122.6207 49.7827],2.218,1.065,2.987,2.334,2.268,1.179,3.104,2.35,155.0,652.0
2015-05-11,Vancouver,Canada,-123.1207,49.2827,[-123.6207 48.7827 -122.6207 49.7827],2.218,0.878,3.017,2.285,2.062,0.989,3.097,2.247,181.0,678.0
2015-05-12,Vancouver,Canada,-123.1207,49.2827,[-123.6207 48.7827 -122.6207 49.7827],2.223,1.065,3.101,2.389,2.07,1.049,3.124,2.284,171.0,674.0
2015-05-13,Vancouver,Canada,-123.1207,49.2827,[-123.6207 48.7827 -122.6207 49.7827],2.322,1.212,3.31,2.509,2.121,1.132,3.163,2.318,205.0,686.0
2015-05-14,Vancouver,Canada,-123.1207,49.2827,[-123.6207 48.7827 -122.6207 49.7827],2.322,1.065,3.498,2.519,2.088,1.046,3.223,2.321,195.0,706.0
2015-05-15,Vancouver,Canada,-123.1207,49.2827,[-123.6207 48.7827 -122.6207 49.7827],2.305,1.065,3.107,2.45,2.058,1.09,3.132,2.282,181.0,754.0
2015-05-16,Vancouver,Canada,-123.1207,49.2827,[-123.6207 48.7827 -122.6207 49.7827],2.337,1.344,3.297,2.535,2.062,1.203,3.149,2.307,163.0,757.0
2015-05-17,Vancouver,Canada,-123.1207,49.2827,[-123.6207 48.7827 -122.6207 49.7827],2.342,1.658,3.107,2.572,2.081,1.225,3.08,2.285,123.0,707.0
2015-05-18,Vancouver,Canada,-123.1207,49.2827,[-123.6207 48.7827 -122.6207 49.7827],2.358,1.714,3.31,2.586,2.159,1.286,3.22,2.371,126.0,710.0
2015-05-19,Vancouver,Canada,-123.1207,49.2827,[-123.6207 48.7827 -122.6207 49.7827],2.322,1.344,3.1,2.453,2.159,1.191,3.187,2.337,109.0,722.0
2015-05-20,Vancouver,Canada,-123.1207,49.2827,[-123.6207 48.7827 -122.6207 49.7827],2.372,1.714,3.107,2.531,2.177,1.297,3.087,2.33,137.0,725.0
2015-05-21,Vancouver,Canada,-123.1207,49.2827,[-123.6207 48.7827 -122.6207 49.7827],2.372,1.714,3.107,2.531,2.147,1.274,3.105,2.312,137.0,725.0
2015-05-22,Vancouver,Canada,-123.1207,49.2827,[-123.6207 48.7827 -122.6207 49.7827],2.533,1.658,3.229,2.541,2.167,1.285,3.149,2.34,151.0,732.0
2015-05-23,Vancouver,Canada,-123.1207,49.2827,[-123.6207 48.7827 -122.6207 49.7827],2.429,1.465,3.107,2.513,2.197,1.272,3.053,2.324,163.0,724.0
2015-05-24,Vancouver,Canada,-123.1207,49.2827,[-123.6207 48.7827 -122.6207 49.7827],2.453,1.361,3.229,2.53,2.235,1.246,3.117,2.366,161.0,728.0
2015-05-25,Vancouver,Canada,-123.1207,49.2827,[-123.6207 48.7827 -122.6207 49.7827],2.472,1.243,3.229,2.541,2.175,1.185,3.072,2.347,157.0,725.0
2015-05-26,Vancouver,Canada,-123.1207,49.2827,[-123.6207 48.7827 -122.6207 49.7827],2.55,1.465,3.229,2.656,2.101,1.185,3.045,2.344,131.0,705.0
2015-05-27,Vancouver,Canada,-123.1207,49.2827,[-123.6207 48.7827 -122.6207 49.7827],2.511,1.597,3.167,2.641,2.075,1.199,3.056,2.321,133.0,711.0
2015-05-28,Vancouver,Canada,-123.1207,49.2827,[-123.6207 48.7827 -122.6207 49.7827],2.328,1.465,3.021,2.463,2.068,1.115,3.096,2.274,99.0,698.0
2015-05-29,Vancouver,Canada,-123.1207,49.2827,[-123.6207 48.7827 -122.6207 49.7827],2.328,1.28,3.021,2.514,2.055,1.102,3.008,2.277,134.0,676.0
2015-05-30,Vancouver,Canada,-123.1207,49.2827,[-123.6207 48.7827 -122.6207 49.7827],2.372,1.361,3.167,2.58,2.068,1.238,3.037,2.347,122.0,653.0
2015-05-31,Vancouver,Canada,-123.1207,49.2827,[-123.6207 48.7827 -122.6207 49.7827],2.189,1.103,2.879,2.339,2.031,1.134,2.907,2.25,163.0,647.0
2015-06-01,Vancouver,Canada,-123.1207,49.2827,[-123.6207 48.7827 -122.6207 49.7827],2.189,1.1,2.879,2.32,2.097,1.204,2.939,2.295,189.0,696.0
2015-06-02,Vancouver,Canada,-123.1207,49.2827,[-123.6207 48.7827 -122.6207 49.7827],1.943,1.072,2.771,2.163,1.961,1.092,2.786,2.156,219.0,700.0
2015-06-03,Vancouver,Canada,-123.1207,49.2827,[-123.6207 48.7827 -122.6207 49.7827],1.732,0.902,2.729,2.011,1.826,1.005,2.744,2.091,262.0,701.0
2015-06-04,Vancouver,Canada,-123.1207,49.2827,[-123.6207 48.7827 -122.6207 49.7827],1.618,0.769,2.584,1.904,1.723,0.893,2.767,2.019,239.0,714.0
2015-06-05,Vancouver,Canada,-123.1207,49.2827,[-123.6207 48.7827 -122.6207 49.7827],1.659,0.839,2.592,1.92,1.685,0.8,2.654,1.965,258.0,716.0
2015-06-06,Vancouver,Canada,-123.1207,49.2827,[-123.6207 48.7827 -122.6207 49.7827],1.614,0.839,2.536,1.874,1.657,0.784,2.625,1.928,234.0,727.0
2015-06-07,Vancouver,Canada,-123.1207,49.2827,[-123.6207 48.7827 -122.6207 49.7827],1.603,0.839,2.536,1.869,1.615,0.76,2.61,1.926,243.0,736.0
2015-06-08,Vancouver,Canada,-123.1207,49.2827,[-123.6207 48.7827 -122.6207 49.7827],1.597,0.836,2.573,1.879,1.582,0.728,2.585,1.849,247.0,743.0
2015-06-09,Vancouver,Canada,-123.1207,49.2827,[-123.6207 48.7827 -122.6207 49.7827],1.601,0.851,2.536,1.867,1.605,0.75,2.755,1.891,283.0,749.0
2015-06-10,Vancouver,Canada,-123.1207,49.2827,[-123.6207 48.7827 -122.6207 49.7827],1.736,1.015,2.786,2.024,1.729,0.881,2.829,1.983,316.0,760.0
2015-06-11,Vancouver,Canada,-123.1207,49.2827,[-123.6207 48.7827 -122.6207 49.7827],1.838,1.03,2.799,2.042,1.736,0.831,2.798,1.978,318.0,761.0
2015-06-12,Vancouver,Canada,-123.1207,49.2827,[-123.6207 48.7827 -122.6207 49.7827],1.789,1.015,2.799,2.032,1.685,0.811,2.745,1.959,340.0,794.0
2015-06-13,Vancouver,Canada,-123.1207,49.2827,[-123.6207 48.7827 -122.6207 49.7827],1.683,1.012,2.799,1.952,1.681,0.844,2.732,1.923,305.0,805.0